Theta_e
313 314 313 312 311 309 313 315 311 322 319 305 305 302 308 307 311 314 313 313 311 311 313 310 310 309 310 314 312 306 307 301 297 303 310 312 308 304 303 297 296 298 300 305
313 313 313 312 310 309 306 311 315 324 319 303 303 306 307 309 310 311 311 312 314 314 310 307 312 314 317 313 310 307 312 300 293 298 303 307 304 306 302 302 299 296 300 303
313 314 314 313 312 310 307 312 313 316 318 315 308 305 305 306 312 310 312 312 314 312 310 311 310 312 317 314 313 327 315 302 300 297 300 307 304 308 309 303 296 298 305 307
314 314 314 313 312 311 309 317 312 317 310 309 309 308 307 305 306 312 313 311 312 310 306 309 309 313 315 317 319 312 307 300 302 306 309 310 307 308 310 305 304 300 308 308
313 314 314 314 312 310 313 313 309 313 311 315 314 306 306 306 307 309 309 312 313 310 306 309 307 310 310 311 316 312 312 302 305 304 310 310 309 310 312 310 310 310 318 314
313 314 314 313 311 310 313 320 317 313 309 310 309 310 311 310 310 311 313 312 313 311 313 315 314 314 313 312 311 313 310 307 306 300 308 308 304 309 311 313 314 312 313 318
314 314 314 313 311 310 309 316 316 311 307 310 310 314 315 314 313 312 315 316 314 317 320 317 315 314 313 314 313 317 311 307 306 303 307 298 308 316 317 314 315 315 322 322
314 314 315 314 313 311 309 313 314 310 305 310 310 310 311 315 316 314 315 316 317 318 315 308 305 305 306 309 312 311 314 310 304 302 303 306 310 314 313 310 309 320 318 324
313 314 315 315 313 311 311 312 320 311 307 309 310 307 310 310 311 312 315 321 317 316 311 307 299 299 303 303 306 309 309 309 308 305 300 298 308 317 319 318 304 321 319 323
312 313 314 315 314 312 310 311 318 314 306 310 308 305 305 310 312 310 314 315 318 316 308 303 301 301 307 301 301 302 305 304 301 302 300 304 312 320 323 304 309 325 329 328
312 313 313 314 314 314 311 310 316 315 309 308 311 313 309 308 308 308 313 313 315 314 308 305 303 302 304 304 309 308 303 301 302 303 300 298 315 318 313 316 323 327 328 329
312 312 314 314 314 313 313 310 315 320 314 310 315 315 316 314 312 307 313 312 313 316 313 313 312 309 309 307 301 310 303 307 305 306 305 312 317 315 319 319 317 325 328 329
311 311 312 314 313 313 311 310 313 314 313 312 313 313 319 319 317 311 302 311 316 315 320 313 312 307 309 302 304 306 311 313 306 310 312 315 319 318 321 323 326 328 330 329
311 312 312 313 312 312 311 309 314 313 313 305 309 318 314 320 317 316 314 312 315 314 316 311 308 305 311 304 306 305 309 309 310 310 314 316 318 317 322 325 327 327 327 327
311 311 312 312 311 311 310 311 315 318 311 303 305 311 313 314 315 314 314 313 311 310 308 307 304 308 307 308 306 304 309 307 304 303 311 313 315 320 323 321 319 319 317 317
310 311 311 311 310 310 311 315 322 318 318 308 301 312 312 316 318 316 315 315 313 312 307 307 309 311 308 303 301 310 310 311 310 311 317 319 320 321 322 319 318 317 316 315
309 310 310 310 309 310 310 310 314 310 319 311 305 305 313 317 321 315 314 315 313 312 310 309 308 308 308 304 299 309 310 312 314 318 320 317 318 316 320 319 319 317 316 316
309 309 309 309 310 309 313 318 312 311 313 313 304 304 308 321 311 310 316 311 312 313 310 310 307 309 307 302 308 311 313 313 313 316 315 316 320 319 316 316 315 312 312 313
309 309 309 312 312 315 319 319 318 319 314 306 309 303 301 313 310 313 314 315 307 314 308 308 309 305 301 307 309 312 313 310 311 316 316 314 316 313 313 313 313 312 312 314
308 311 314 315 319 317 318 316 313 314 314 311 305 309 304 310 309 308 310 311 307 302 307 312 306 304 312 313 314 314 317 314 314 311 313 314 313 313 312 312 313 313 313 315
309 305 309 312 320 316 314 310 309 310 306 311 310 311 306 314 305 305 311 306 306 298 303 304 303 303 311 314 314 313 313 314 315 314 317 316 315 314 314 313 314 315 315 315
303 302 306 311 314 312 307 306 308 305 304 310 307 311 312 312 315 308 309 304 305 298 308 302 299 307 312 315 313 314 312 316 316 317 316 316 316 315 316 315 315 316 317 316
311 307 308 309 308 295 299 298 303 305 310 313 312 309 313 315 313 308 306 300 299 308 301 299 305 311 314 315 318 316 317 317 316 315 314 315 316 317 316 315 315 316 315 315
306 306 290 301 301 304 305 306 307 312 313 309 312 312 311 312 308 306 302 306 306 299 297 299 306 310 311 315 318 315 314 315 314 315 315 315 314 315 316 317 315 314 313 313
306 307 292 302 308 309 311 312 312 313 315 312 312 313 312 308 306 307 304 301 298 300 298 303 309 313 314 314 316 316 316 315 314 314 313 314 315 313 313 316 316 314 314 314
307 306 303 308 307 307 309 310 311 316 314 315 314 309 305 303 305 302 300 299 297 301 305 307 310 310 312 312 315 316 316 316 315 315 316 316 316 315 314 316 315 314 314 312
303 302 307 307 307 308 311 313 313 319 312 305 308 303 302 309 302 300 305 301 303 306 306 310 309 309 311 314 315 316 317 315 314 313 313 314 315 312 312 312 313 314 314 314
Wind_Speed
22 22 23 23 24 31 7 5 4 11 12 3 4 7 6 10 23 23 22 4 8 13 11 10 7 8 11 10 12 8 10 5 3 12 15 9 9 10 8 6 9 6 3 7
22 22 23 22 19 15 7 4 5 4 6 4 8 9 17 20 21 21 20 8 7 10 9 7 7 11 12 3 6 5 3 4 3 11 11 9 7 9 6 4 2 7 6 5
23 23 24 23 21 15 3 4 4 2 3 7 10 10 12 14 19 20 20 15 5 8 8 8 7 10 8 4 5 4 9 2 6 7 8 3 4 8 9 4 3 5 3 9
23 24 24 25 27 26 5 4 3 4 2 6 12 12 11 17 17 14 15 6 4 8 7 9 9 12 15 6 6 4 4 6 5 9 11 15 9 11 8 2 8 3 11 11
23 23 24 26 30 30 3 4 5 7 8 11 13 13 12 16 19 11 10 6 10 6 7 7 10 8 6 5 7 7 8 5 5 7 10 14 15 11 8 5 6 12 8 4
23 23 24 26 25 24 5 5 5 3 8 9 9 7 10 12 13 12 13 11 4 8 5 7 8 10 10 9 5 4 2 5 7 8 9 11 9 8 6 4 2 2 3 7
22 22 22 25 24 15 4 4 6 4 6 9 12 18 25 7 4 6 10 9 8 7 6 5 8 10 10 9 9 8 5 5 4 5 10 7 8 11 8 7 7 9 6 10
21 21 22 21 20 16 4 4 4 4 6 10 13 17 17 16 8 7 8 9 3 6 7 6 7 7 8 9 9 9 9 6 5 5 8 11 8 5 6 6 7 2 6 8
21 21 21 21 20 21 6 5 3 3 5 1 16 14 14 7 11 10 9 19 4 4 3 3 4 5 7 6 9 8 10 8 7 8 11 5 7 17 5 6 4 8 7 20
21 21 21 21 21 19 7 6 7 3 5 6 12 7 7 7 8 6 4 12 3 5 2 3 5 9 8 9 10 7 4 3 7 5 5 2 13 14 12 5 4 10 9 23
20 21 20 21 21 19 10 8 8 4 4 13 6 11 9 9 6 4 10 9 8 6 2 3 5 4 7 4 6 5 3 2 2 3 5 4 10 8 8 7 11 9 14 14
20 21 20 19 19 18 14 4 8 8 5 9 17 20 19 17 12 5 4 4 5 4 5 5 5 4 4 4 3 7 4 1 2 4 6 3 6 7 12 6 7 6 14 12
19 20 21 20 18 15 9 5 6 6 5 9 8 8 14 13 13 7 3 4 3 4 2 2 3 3 5 4 4 7 4 1 2 2 0 8 9 6 7 5 10 10 7 11
20 20 21 20 19 15 10 4 5 5 4 5 5 12 7 8 3 6 6 5 6 5 2 2 2 2 3 3 4 2 7 1 4 3 9 11 10 6 8 8 12 14 12 12
21 21 21 20 19 17 9 6 5 6 2 4 9 17 8 12 6 5 6 4 4 3 4 3 4 3 2 4 2 3 3 2 2 4 4 7 6 7 10 12 14 14 16 14
21 21 20 19 17 14 4 2 3 5 4 3 5 6 8 4 5 5 7 3 4 2 2 4 4 5 1 3 2 4 5 8 7 4 6 8 9 9 11 12 13 15 15 11
22 21 19 18 13 4 3 3 3 8 3 3 5 5 1 5 2 3 4 5 3 2 3 2 3 5 1 2 3 4 6 6 8 4 8 7 6 7 10 12 13 16 12 10
26 23 20 18 11 9 5 1 9 2 3 4 4 5 2 3 4 4 2 3 3 3 4 2 4 4 2 4 4 5 4 7 7 4 3 3 7 10 13 14 14 14 11 8
28 24 20 2 3 3 1 4 5 3 3 4 4 5 4 6 5 3 5 4 4 6 4 6 3 4 3 5 5 6 6 5 5 2 1 2 12 11 10 12 11 11 9 9
31 5 3 2 1 1 3 2 3 4 5 4 4 4 6 7 4 4 4 4 2 3 3 7 2 5 7 15 15 9 2 6 5 3 5 8 8 8 6 6 5 10 9 7
6 5 4 6 8 2 4 2 3 3 2 3 3 3 4 5 4 3 1 1 1 3 4 5 4 3 4 6 12 10 11 17 8 5 4 12 13 11 7 7 11 6 8 9
7 6 8 5 4 2 3 3 2 2 2 1 1 4 4 4 1 3 2 2 3 3 0 3 2 3 4 7 13 10 7 15 20 21 20 16 17 17 19 17 9 9 9 9
2 4 5 1 3 2 4 3 2 1 2 2 3 3 3 4 1 2 1 2 4 1 3 3 1 1 3 6 8 1 7 13 20 20 19 20 10 14 14 9 0 8 8 7
4 4 4 4 5 4 3 3 2 2 1 1 2 2 2 3 2 2 3 4 2 2 1 4 4 6 6 7 8 10 10 11 14 15 17 18 10 11 11 8 4 6 6 7
5 2 3 6 7 3 3 1 3 1 2 1 2 1 1 3 3 3 2 2 2 4 4 5 10 9 7 7 7 7 8 9 8 7 6 8 4 4 7 6 5 4 6 8
4 4 5 7 5 1 3 2 1 2 3 1 1 2 2 3 2 2 2 4 3 1 3 4 3 3 4 5 6 7 7 7 6 5 6 6 6 5 4 3 5 6 7 5
5 5 7 8 8 6 3 3 1 2 2 1 1 3 2 2 2 2 2 1 3 4 6 4 4 4 1 1 3 6 5 6 6 3 3 4 3 4 4 3 5 9 2 3
Wind_Direction
350 345 343 343 345 341 356 303 272 147 145 145 207 235 249 272 283 293 293 246 291 290 307 322 333 257 221 214 192 195 225 197 248 233 260 256 200 230 221 142 276 234 147 256
346 345 344 344 348 9 321 293 274 167 171 219 236 246 238 249 268 274 281 270 243 273 291 318 329 328 307 345 149 130 62 320 287 320 324 308 207 240 245 257 331 272 138 248
349 346 345 343 341 342 265 276 274 190 198 251 252 268 277 264 241 257 276 285 274 330 318 314 311 309 310 150 103 137 94 191 195 220 225 303 336 293 297 73 330 314 182 123
347 346 346 346 341 341 193 228 281 20 265 248 238 257 277 289 296 262 243 258 300 291 313 324 315 310 320 300 169 156 130 213 256 279 297 297 268 247 236 61 256 305 203 144
350 347 349 352 350 344 247 332 360 328 291 294 310 208 243 260 282 293 312 195 212 261 276 261 274 335 343 181 327 337 360 272 240 278 293 295 297 303 210 232 321 22 110 100
351 349 352 359 3 349 346 351 339 265 292 305 314 302 285 278 251 282 287 299 347 225 49 5 325 305 291 280 179 150 331 80 19 272 267 287 313 287 141 135 116 212 211 234
348 349 352 360 6 19 296 286 304 282 293 311 321 336 328 282 355 359 331 7 36 339 35 8 345 313 306 299 298 132 58 79 88 283 335 288 253 47 51 87 18 24 43 129
348 348 350 353 355 359 312 294 300 315 301 324 333 345 326 346 359 349 322 317 351 9 8 14 351 329 318 294 276 289 143 127 70 55 300 291 327 54 67 74 310 111 67 134
347 348 348 351 354 357 326 282 307 317 304 217 319 327 348 351 355 344 344 333 252 80 61 3 270 256 272 281 304 264 245 185 157 168 223 265 21 346 221 131 275 330 157 154
344 345 347 349 352 353 332 282 294 318 295 251 344 338 336 329 337 302 6 338 328 122 173 231 250 267 255 256 261 275 299 294 208 211 218 93 355 346 322 56 264 310 333 136
340 341 343 346 350 353 352 279 290 317 283 286 279 345 335 336 345 357 326 330 1 345 352 206 243 266 272 295 294 169 97 56 42 68 54 166 338 15 61 266 309 38 59 83
336 337 337 339 344 351 344 285 335 336 255 270 297 283 267 259 275 308 319 282 335 323 8 13 335 337 341 352 338 338 62 117 254 150 195 213 271 68 333 357 308 39 101 103
330 331 331 330 335 341 347 288 308 296 286 288 247 256 262 216 233 226 243 303 0 355 254 275 283 302 25 342 323 18 353 230 128 74 172 202 203 176 120 33 31 51 107 126
324 324 324 323 326 327 326 285 294 279 292 283 315 3 335 305 252 296 298 272 341 309 343 255 256 287 287 300 283 305 210 339 156 163 176 205 211 152 126 86 77 77 59 59
321 320 318 319 321 321 295 242 261 265 1 307 296 302 266 254 270 191 268 315 297 295 309 278 260 252 276 263 321 287 5 299 116 209 207 136 156 118 101 87 83 78 79 70
316 314 314 313 317 325 290 220 133 9 4 295 296 319 273 221 34 350 328 279 276 228 236 274 285 285 360 281 269 304 324 13 34 305 99 109 131 111 110 108 104 96 91 82
312 311 309 306 308 297 270 1 320 348 304 255 286 293 254 57 2 284 274 252 236 214 270 270 260 286 290 281 263 278 324 2 10 29 92 70 111 140 123 113 107 94 88 98
310 309 304 299 291 271 277 201 230 253 261 264 281 270 274 39 296 301 253 250 225 221 205 261 269 310 330 277 248 284 344 0 4 286 80 159 149 107 117 116 113 110 110 98
308 311 302 264 204 240 69 140 156 231 288 309 291 317 324 16 338 358 8 13 341 330 226 226 210 232 236 276 288 267 204 168 273 225 285 359 129 127 125 122 125 122 122 123
307 291 226 189 85 120 170 127 195 202 190 220 253 290 329 343 338 9 26 350 38 328 35 297 277 238 33 10 354 6 258 92 348 117 79 98 118 136 141 134 141 134 133 125
353 344 342 319 292 264 223 251 205 215 226 247 312 12 307 328 348 327 99 123 5 317 17 327 338 324 350 353 339 345 30 4 300 0 69 69 58 43 22 101 80 96 93 90
305 301 281 258 257 234 270 235 159 234 355 304 249 265 300 290 224 290 201 206 141 261 66 341 260 258 291 7 329 296 33 63 65 75 68 62 77 65 48 327 137 95 94 93
208 203 241 263 245 18 220 237 123 197 228 333 306 316 293 339 360 303 261 248 247 121 225 246 44 329 321 334 322 39 90 103 91 87 86 69 78 99 92 255 14 113 114 130
247 233 310 223 225 225 244 197 98 175 315 275 323 307 277 301 291 236 229 234 294 261 261 21 347 15 330 339 44 80 99 86 103 109 117 126 157 154 171 203 92 102 117 112
267 290 245 237 247 215 301 326 157 256 187 244 309 266 217 259 280 265 352 274 265 36 22 350 333 349 5 22 78 89 98 105 97 98 94 93 70 59 87 19 337 118 96 98
266 258 275 286 301 66 117 236 300 252 299 321 223 278 226 253 236 265 255 327 16 137 224 221 201 256 35 21 31 64 61 51 73 88 99 98 91 71 55 335 13 111 128 146
239 237 228 257 284 283 247 144 221 284 9 262 255 306 315 250 274 37 84 252 211 221 229 223 212 253 262 217 84 67 79 116 134 130 122 127 123 94 79 45 65 316 168 195